CAPE
4 2 3 0 0 0 0 0 0 0 0 0 0 0 0 0 0 0 0 0 0 0 0 0 0 0 0 0 0 0 0 0 0 0 0 0 0 0 0 0 1 0 0 0
1 4 1 0 0 0 1 0 0 0 0 0 0 0 0 0 0 0 0 0 0 0 0 0 0 0 0 0 0 0 0 0 0 0 0 0 0 0 0 0 0 0 0 0
10 1 0 0 0 0 0 0 0 0 0 0 0 0 0 0 0 0 0 0 0 0 0 0 0 18 10 0 0 2 0 0 0 0 0 0 0 0 0 0 0 0 0 0
19 6 1 0 0 0 0 0 0 0 0 0 0 0 0 0 0 0 0 0 0 0 0 0 2 38 0 0 3 0 0 0 0 0 0 0 0 0 0 0 0 0 0 0
21 7 2 1 0 0 0 0 0 0 0 0 0 0 0 0 0 0 0 0 0 0 0 0 0 22 0 5 0 0 0 0 0 0 0 0 0 0 0 0 0 0 0 0
21 17 1 3 0 0 0 0 0 0 0 0 0 0 0 0 0 0 0 0 0 4 0 0 0 0 0 1 31 2 0 1 0 0 0 0 0 0 0 0 0 0 0 0
16 27 11 1 0 0 2 0 0 0 0 0 0 0 0 0 0 0 0 0 0 14 0 0 0 0 0 0 0 0 0 0 0 4 0 0 0 0 0 0 5 107 94 0
6 22 16 1 1 2 1 0 0 2 0 0 0 0 0 0 0 0 0 0 0 0 0 0 2 22 31 24 0 0 0 0 0 0 0 0 0 0 0 0 2 506 167 0
4 10 22 8 3 1 1 0 0 0 2 0 0 0 0 0 0 0 0 4 0 11 0 39 146 130 120 254 16 0 0 0 0 0 0 0 0 65 9 49 7 783 364 8
4 6 19 13 7 0 2 0 0 4 15 0 0 0 0 0 0 0 0 0 15 28 7 294 357 197 8 18 0 0 0 0 1 0 0 0 1 0 24 10 37 962 748 859
3 6 17 13 9 7 16 0 0 12 24 0 0 0 0 0 0 0 0 0 4 80 258 62 21 49 23 28 0 0 0 3 33 9 0 0 0 136 262 31 765 825 665 381
0 13 19 16 9 11 22 2 0 0 6 0 0 0 0 0 0 0 0 0 0 62 6 2 0 0 0 0 0 0 0 1 11 10 52 5 9 14 50 245 721 479 168 153
2 5 18 15 9 8 26 15 0 0 10 0 0 0 0 0 0 0 0 0 0 17 0 0 0 0 0 0 0 0 0 0 0 2 50 43 49 31 35 69 480 345 12 2
2 2 18 15 11 9 18 29 4 0 7 11 0 0 0 0 0 0 0 0 0 0 0 0 0 0 0 0 0 0 0 0 0 0 12 12 48 67 32 90 38 547 13 0
4 0 18 15 8 8 2 12 7 0 3 7 0 0 0 0 0 0 0 0 0 0 0 0 0 0 0 0 0 0 0 0 0 42 25 0 0 13 48 72 28 53 190 86
1 4 29 15 1 0 10 13 0 0 0 5 8 0 0 0 0 0 0 0 0 0 0 0 0 0 19 3 0 0 0 0 0 31 27 24 0 0 0 0 15 206 85 99
5 16 12 8 1 8 10 3 0 0 0 4 5 0 0 0 0 0 0 0 0 0 0 0 0 0 0 0 0 2 1 8 0 0 0 1 4 0 0 0 0 8 209 627
13 10 6 0 0 0 0 0 0 0 0 4 12 0 0 0 0 0 0 0 0 0 0 0 0 0 0 0 0 0 0 0 0 7 0 0 0 0 0 328 246 0 600 533
4 0 0 0 2 7 0 0 0 0 0 4 6 0 0 0 0 0 0 0 0 0 0 0 0 0 0 0 0 0 2 0 0 0 2 0 0 0 6 467 433 342 366 331
2 4 4 15 0 0 0 1 3 1 0 1 6 0 0 0 0 0 9 2 0 0 0 0 0 0 0 0 0 0 0 0 0 0 0 18 14 19 35 285 386 338 422 307
3 3 9 2 0 0 4 4 6 1 4 0 0 0 0 0 0 2 17 41 29 6 0 0 0 0 0 0 0 0 0 0 0 0 0 0 8 11 0 0 30 46 12 95
0 2 0 0 2 6 23 18 0 2 0 0 0 0 0 0 0 20 2 35 21 31 0 0 0 0 3 406 26 0 0 0 0 6 32 6 0 0 0 0 0 0 0 0
0 3 2 4 3 0 17 14 7 5 0 0 21 11 25 0 0 0 6 17 1 0 2 16 0 0 19 10 0 0 0 0 127 366 14 0 0 0 0 0 0 0 0 0
4 6 0 7 3 0 0 0 0 0 2 6 4 7 13 22 22 0 1 0 0 0 0 0 0 0 0 0 45 0 1 476 612 214 3 2 5 30 16 0 0 0 38 0
7 27 2 1 0 0 0 0 0 19 10 0 0 0 4 24 9 22 4 10 0 0 1 1 4 0 0 0 3 167 253 319 333 228 127 70 35 15 1 1 0 0 0 0
6 5 3 0 0 1 2 16 15 2 0 0 0 0 0 4 8 39 44 0 0 0 0 0 0 0 0 4 147 199 276 180 80 37 11 2 0 0 0 0 0 0 0 0
2 0 0 0 0 0 4 7 6 5 0 0 2 9 0 0 9 10 0 0 0 0 0 0 0 0 0 67 181 156 69 13 0 0 0 0 0 0 0 0 0 0 0 0
CIN
-1 0 0 0 0 0 0 0 0 0 0 0 0 0 0 0 0 0 0 0 0 0 0 0 0 0 0 0 0 0 0 0 0 0 0 0 0 0 0 -3 -2 0 0 0
-1 -1 -1 0 0 0 0 0 0 0 0 0 0 0 0 0 0 0 0 0 0 0 0 0 0 0 0 0 0 0 0 0 0 0 0 0 0 0 0 0 0 0 0 0
-2 0 -1 0 0 0 0 0 0 0 0 0 0 0 0 0 0 0 0 0 0 0 0 0 0 -156 -138 0 0 -296 0 0 0 0 0 0 0 0 0 0 0 0 0 0
-4 -2 -1 0 0 0 0 0 0 0 0 0 0 0 0 0 0 0 0 0 0 0 0 0 -119 -203 -53 0 -90 0 0 0 0 0 0 0 0 0 0 0 0 0 0 0
-7 -1 -2 -12 0 0 0 0 0 0 0 0 0 0 0 0 0 0 0 0 0 0 0 0 0 -170 0 -78 -1 0 0 0 0 0 0 0 0 0 0 0 0 0 0 0
-4 -8 0 -5 0 0 0 0 0 0 0 0 0 0 0 0 0 0 0 0 0 -50 0 0 0 0 0 -169 -296 -292 0 -37 0 0 0 0 0 0 0 0 0 0 0 0
-3 -8 -5 -2 0 -6 -1 0 0 0 0 0 0 0 0 0 0 0 0 0 0 -102 0 0 0 0 0 0 0 0 0 0 0 -41 0 0 0 0 0 0 -134 -342 -125 0
0 -4 -10 -3 -9 -22 -1 0 0 0 0 0 0 0 0 0 0 0 0 0 0 0 0 0 -69 -92 -119 -344 0 0 0 0 0 -1 0 0 0 0 0 0 -149 -451 -413 -110
0 -3 -11 -7 -8 -18 -1 0 0 -2 -1 0 0 0 0 0 0 0 0 -286 0 -400 0 -172 -52 -46 -223 -108 -213 0 0 0 0 0 0 0 0 -349 -585 -179 -106 -440 -545 -571
0 -3 -10 -8 -4 -2 -4 -1 0 -7 -5 0 0 0 0 0 0 0 0 0 -258 -365 -122 -145 -128 -122 -269 -169 0 0 0 0 -93 0 0 0 -23 0 -632 -82 -56 -513 -521 -482
0 -3 -9 -10 -5 -5 -1 0 0 -8 -2 0 0 0 0 0 0 0 0 0 -129 -241 -131 -221 -312 -262 -314 -340 0 -1 0 -121 -199 -214 0 0 0 -441 -122 -238 -593 -555 -564 -674
0 -6 -10 -12 -6 -3 -1 -3 0 -28 -5 0 0 0 0 0 0 0 0 0 0 -219 -239 -143 0 0 0 0 0 0 0 -27 -324 -326 -212 -512 -820 -765 -760 -650 -566 -629 -671 -643
0 -3 -11 -11 -9 -6 -1 -1 -6 0 -16 0 0 0 0 0 0 0 0 0 0 -231 0 0 0 0 0 0 0 0 0 0 0 -15 -266 -444 -572 -711 -659 -693 -611 -648 -415 -645
-1 -4 -11 -11 -15 -9 -2 0 -20 -15 -20 0 0 0 0 0 0 0 0 0 0 0 0 0 0 0 0 0 0 0 0 0 0 0 -390 -484 -531 -639 -642 -544 -631 -490 -491 0
-4 -2 -7 -10 -16 -17 -19 -11 -17 -12 -4 0 0 0 0 0 0 0 0 0 0 0 0 0 -16 0 0 0 0 0 0 0 0 -124 -262 -28 0 -488 -589 -576 -544 -587 -580 -617
-4 -7 -1 -8 -11 0 -5 -1 0 0 0 -9 0 0 0 0 0 0 0 0 0 0 0 0 0 -6 -119 -137 0 0 0 0 0 -342 -368 -421 0 0 0 0 -515 -497 -503 -507
-5 -8 -9 -14 -9 -4 0 0 0 0 0 -1 -2 0 0 0 0 0 0 0 0 0 0 0 0 0 0 0 0 -184 -70 -365 0 0 0 -65 -366 0 0 0 0 -382 -473 -301
-2 -6 -8 -6 -3 0 -1 0 0 0 0 0 -1 0 0 0 0 0 0 0 0 0 0 0 0 0 0 0 0 0 0 0 0 -353 0 0 0 0 0 -331 -367 0 -380 -374
-4 0 -1 -12 -11 -7 -4 0 0 0 0 -1 -4 -1 0 0 0 0 0 0 -22 0 0 0 0 0 0 0 0 0 -181 0 -9 0 -87 0 0 0 -424 -324 -428 -455 -436 -389
-2 0 0 0 0 0 0 0 0 0 0 0 0 0 0 0 0 -3 -85 -158 -20 0 0 0 0 0 0 0 0 0 0 -6 0 0 0 -292 -369 -429 -408 -371 -314 -399 -387 -399
0 -5 0 0 -1 0 -3 -4 -7 -13 -1 0 0 0 0 0 0 -23 -151 -93 -106 -26 0 0 0 0 0 0 0 0 0 0 0 0 0 -42 -332 -273 0 0 -472 -423 -361 -398
0 -1 0 0 0 -14 -4 -2 0 0 -1 0 0 0 0 0 0 -84 -46 -57 -92 -16 0 0 0 0 -27 -237 -41 0 0 0 0 -153 -239 -217 -29 0 0 0 0 0 0 0
0 -19 0 -21 0 0 -3 0 -6 -9 0 0 -35 -44 -66 0 0 -21 -137 -65 -7 0 -102 -114 0 0 -411 -474 -23 0 0 0 -242 -244 -282 0 0 0 0 0 0 0 0 0
-16 -4 0 -4 0 0 0 0 0 0 -63 -51 -93 -78 -85 -92 -54 0 -54 0 -72 0 0 0 0 0 0 0 -400 -1 -40 -211 -250 -351 -53 -55 -50 -486 -441 -14 0 0 -378 0
-29 -1 -8 0 0 0 0 0 0 -30 -44 0 0 0 -115 -55 -67 -94 -30 -60 0 0 -44 -85 -314 -29 0 0 -379 -302 -318 -365 -350 -400 -433 -438 -449 -267 0 0 0 0 0 0
0 -5 -3 -9 0 -13 -34 -25 -22 -53 -2 0 0 0 0 -45 -98 -25 -23 0 0 0 0 0 0 0 -36 -295 -306 -298 -343 -376 -461 -478 -475 -169 0 0 0 0 0 0 0 0
0 0 0 0 0 0 -31 -41 -30 -67 0 -1 -46 -24 0 0 -44 -26 0 0 0 0 0 0 0 0 0 -299 -226 -221 -269 -374 0 0 0 0 0 0 0 0 0 0 0 0
Wind_Speed
14 16 16 15 17 22 6 4 3 2 2 5 1 3 5 4 5 3 8 3 8 6 5 4 3 3 5 9 8 11 9 6 5 11 5 1 2 6 8 7 5 2 4 9
14 14 15 12 13 13 4 3 3 4 3 2 1 4 4 4 4 4 3 4 4 4 2 3 2 1 5 9 3 9 10 3 3 12 9 4 3 4 5 4 4 6 7 7
11 13 13 11 11 10 3 3 2 4 3 1 3 3 6 4 4 6 5 8 4 2 4 3 2 2 3 6 6 7 6 4 9 11 10 4 4 4 3 8 4 4 7 9
11 10 11 9 10 9 1 1 1 2 2 2 3 2 3 6 5 2 6 6 5 2 4 2 3 1 4 3 6 4 5 2 1 6 6 6 6 5 4 3 6 6 6 9
13 9 10 8 10 9 1 2 3 5 2 3 4 2 1 4 6 2 5 4 15 4 4 5 6 4 3 2 6 3 4 1 3 3 5 5 3 4 6 6 5 5 2 8
13 10 8 6 9 5 2 2 2 2 3 4 2 1 4 4 7 4 4 5 5 6 4 8 6 2 4 3 1 1 3 3 3 5 5 1 4 8 5 6 3 6 7 9
13 11 6 3 5 4 1 2 1 2 4 1 1 5 6 7 6 4 7 4 4 4 9 4 2 5 3 6 5 1 3 5 2 3 4 1 11 4 5 6 4 2 0 3
10 11 7 1 2 2 1 2 1 1 3 2 6 4 4 9 5 3 4 3 3 8 6 5 6 6 5 6 4 6 3 2 3 4 4 6 4 6 3 7 0 4 4 6
9 10 8 3 3 3 2 2 2 1 1 5 2 3 3 3 3 6 5 6 7 5 4 4 4 3 2 6 9 5 4 4 3 3 3 5 5 5 11 6 3 4 4 8
9 9 9 4 4 3 3 3 2 2 3 4 2 3 3 3 3 3 5 7 8 3 3 3 3 4 1 2 2 4 5 3 3 3 4 7 0 10 7 5 9 2 12 10
8 8 9 4 3 5 4 3 4 2 3 5 5 2 1 4 2 1 5 4 3 4 4 3 1 1 3 0 3 3 3 2 3 0 3 4 3 9 6 3 4 14 12 10
8 9 7 5 4 3 3 1 3 1 3 6 3 9 14 14 12 2 4 3 3 4 3 0 3 2 1 1 3 1 3 6 3 7 6 3 4 6 8 1 9 6 14 9
7 8 7 5 5 3 3 1 2 2 3 7 1 9 10 10 17 15 4 4 3 1 3 3 1 3 4 3 5 2 4 4 4 4 4 8 3 5 4 4 8 12 6 11
7 7 7 5 4 4 3 1 1 1 2 4 8 4 8 4 5 16 21 12 4 3 2 1 2 2 3 4 4 4 5 3 3 6 8 7 0 5 5 5 8 10 6 7
7 6 6 6 5 3 1 2 2 2 1 3 8 14 7 6 8 15 18 16 8 2 2 1 4 2 3 1 2 4 5 7 5 6 5 3 3 4 3 6 10 9 7 4
6 6 6 6 6 4 2 2 1 3 2 3 5 5 6 5 3 8 12 12 5 4 4 5 4 3 4 4 4 8 6 6 9 6 4 6 6 3 6 7 10 9 7 6
5 5 5 5 4 2 2 1 1 1 2 2 5 6 6 6 4 3 3 6 5 5 4 4 3 3 5 2 5 7 8 13 12 9 1 10 11 5 6 5 10 10 5 6
4 6 5 3 3 2 3 2 6 2 1 2 3 6 6 4 3 2 1 4 2 2 4 1 3 2 2 7 8 9 10 5 10 9 7 11 8 10 9 9 8 11 8 10
6 7 7 2 1 2 2 4 4 1 1 2 2 3 5 6 3 2 3 2 2 1 4 4 5 3 7 8 11 10 14 10 9 3 6 6 9 6 7 7 10 14 15 17
8 2 2 2 3 6 6 1 1 1 1 2 3 1 4 3 3 4 3 1 4 2 6 3 5 10 14 10 9 8 8 9 1 4 8 2 5 4 2 3 2 11 13 18
2 3 1 1 1 1 1 2 2 2 2 3 4 5 3 2 2 3 1 2 2 2 4 3 4 5 9 18 19 11 9 5 5 4 5 7 8 6 7 10 8 9 11 12
3 2 3 1 1 2 2 3 2 3 4 3 3 4 6 4 2 1 1 2 2 5 3 1 4 7 7 5 8 8 4 7 5 8 12 7 8 5 9 10 11 8 9 9
2 2 3 2 2 2 4 4 4 3 3 3 2 3 3 0 1 0 1 1 5 4 2 5 6 5 5 8 1 7 7 5 3 4 5 3 7 12 10 9 6 8 6 5
2 3 3 3 3 5 5 4 3 4 2 3 2 3 1 0 1 2 2 4 2 4 4 6 4 6 6 7 6 4 9 8 6 5 7 7 7 12 10 6 5 7 8 7
2 3 4 6 4 3 4 4 2 2 2 1 3 3 1 2 3 3 2 1 4 5 5 3 4 10 5 6 7 2 7 10 7 7 8 9 9 8 8 8 9 10 10 8
2 3 2 3 2 3 2 1 2 2 1 1 2 2 2 4 2 2 5 3 6 5 4 3 4 8 7 5 5 4 6 8 9 7 6 10 9 9 7 8 7 7 10 9
2 3 2 3 2 3 3 2 2 1 1 1 1 3 6 2 3 3 3 3 3 7 5 4 4 6 8 4 7 3 6 8 10 8 8 9 8 9 9 10 6 7 6 7
Wind_Direction
333 337 339 336 341 334 33 336 39 330 125 59 62 164 201 278 280 168 254 211 209 224 258 246 250 233 209 310 159 173 203 149 230 223 256 241 189 224 158 135 221 170 160 269
334 336 340 339 347 4 329 1 283 318 57 118 288 291 281 244 269 269 248 269 233 214 239 320 192 267 257 332 160 175 172 259 319 334 352 14 208 181 147 132 92 189 142 262
329 336 338 340 343 356 329 338 52 324 78 215 117 0 292 291 269 260 220 249 266 282 196 241 253 288 305 345 345 32 102 127 166 214 206 165 277 190 170 125 114 190 223 238
321 331 333 337 336 346 43 10 330 173 301 342 327 192 294 301 332 258 13 344 343 252 269 166 223 251 316 300 326 55 90 158 327 225 209 178 195 240 172 153 178 158 242 203
322 322 330 335 337 347 360 79 18 350 280 309 335 41 9 324 323 267 324 3 318 315 183 226 234 182 205 254 340 59 1 144 76 269 238 256 286 270 169 207 198 246 227 284
317 315 322 337 343 352 325 7 348 106 292 342 61 200 307 317 325 297 325 316 313 10 4 295 266 105 133 182 323 19 79 106 70 286 350 303 4 246 234 228 179 151 184 231
317 316 304 334 346 22 328 320 331 43 284 315 330 330 310 310 321 260 286 326 360 285 326 278 359 64 91 71 34 115 134 105 95 218 21 298 239 289 250 234 96 278 347 204
309 314 310 220 306 329 294 293 341 338 275 303 285 333 295 310 303 288 283 301 257 308 5 34 11 345 11 8 19 339 63 128 111 156 180 277 287 329 193 171 246 335 274 139
299 304 308 235 197 288 266 269 238 266 326 251 305 309 297 287 312 329 289 317 297 12 69 79 153 223 243 321 342 31 10 93 129 124 156 218 251 347 336 314 297 333 339 62
288 295 301 222 198 226 228 276 270 259 259 266 75 227 258 332 342 276 297 327 332 35 75 73 166 224 194 233 203 334 321 1 212 167 192 278 353 298 302 153 224 207 100 73
279 285 294 227 212 243 216 263 256 225 262 271 229 245 273 334 259 254 290 4 338 3 81 139 193 197 225 250 254 192 185 132 237 257 143 271 5 344 181 304 175 140 115 135
268 277 288 228 237 255 218 251 301 323 222 250 221 235 234 230 237 69 311 245 234 203 81 46 120 189 216 180 278 92 266 186 227 190 243 251 168 222 283 356 267 201 132 159
255 269 283 226 223 225 249 266 307 315 278 285 326 243 261 221 221 204 189 269 235 149 188 163 147 202 142 172 241 266 238 165 214 2 271 254 89 292 269 318 302 304 152 181
234 254 276 226 220 218 235 238 247 162 270 279 280 299 280 206 171 194 215 234 355 59 52 121 145 193 166 206 229 197 216 130 252 265 287 279 169 224 245 265 298 287 242 270
217 245 271 213 209 216 264 257 245 242 251 290 288 300 266 238 198 199 209 220 233 60 325 154 233 165 123 232 333 255 184 198 165 227 242 263 291 283 259 242 229 250 261 304
221 246 232 206 195 193 213 260 94 209 196 279 292 291 288 308 179 191 195 202 190 173 171 226 237 218 145 174 216 260 224 225 180 223 111 240 247 357 269 273 286 261 273 276
230 224 180 187 197 205 221 254 167 52 127 258 288 299 276 285 224 181 161 153 186 157 193 213 221 215 133 199 231 255 233 239 250 214 90 284 224 214 220 199 242 231 209 203
188 159 161 165 157 279 304 290 199 171 233 248 285 278 323 347 320 287 127 127 117 217 207 114 176 4 159 246 237 249 258 245 277 265 196 238 281 297 319 337 233 200 140 86
152 147 143 122 216 200 234 159 149 214 253 291 272 281 279 349 303 271 347 95 143 267 201 210 123 223 229 228 218 229 232 207 224 110 218 264 263 295 342 6 104 112 110 108
144 149 187 185 224 126 134 152 203 200 195 238 251 218 273 6 341 306 353 113 212 185 242 102 178 238 240 256 244 249 254 242 142 317 273 226 274 265 215 66 52 128 133 134
209 181 154 48 66 141 211 189 221 160 233 211 238 204 237 282 203 278 72 317 278 233 264 181 229 260 233 223 233 237 238 205 219 230 279 231 223 204 136 111 122 150 124 136
183 113 103 124 182 204 231 193 166 219 232 234 217 224 197 261 192 231 330 257 28 242 318 204 261 242 238 261 240 245 149 148 192 212 228 238 226 166 126 125 135 153 132 149
104 148 147 166 145 171 215 192 211 215 205 243 278 302 225 225 89 331 35 267 243 331 233 231 237 270 338 322 241 100 140 144 245 243 112 141 128 132 133 132 128 119 123 139
209 164 151 210 183 240 201 208 197 230 232 293 275 269 269 211 165 161 178 251 336 299 279 246 293 311 321 341 316 176 153 132 123 98 96 100 113 110 122 143 131 130 133 123
223 205 202 213 232 243 228 230 261 307 297 337 343 318 44 289 300 192 84 284 261 234 242 254 302 312 325 328 331 288 131 122 120 102 98 90 85 94 97 97 118 114 111 126
233 236 252 256 218 283 350 222 174 191 237 60 66 296 316 258 237 194 201 196 228 255 239 254 324 324 326 320 342 357 121 108 107 97 110 99 100 93 87 83 82 97 119 115
240 251 231 252 240 237 266 219 221 163 89 227 247 238 226 297 260 229 184 228 296 297 310 330 318 297 300 254 112 110 108 108 92 93 78 82 89 93 90 83 54 74 83 97